Weather History for KFME - September, 2013

Change the Weather History Date:

Friday, September 13, 2013

  Actual Average (KBWI) Record (KBWI)
Temperature  
Mean Temperature 69 °F 69 °F  
Max Temperature 78 °F 79 °F 97 °F (1952)
Min Temperature 60 °F 59 °F 42 °F (1958)
Degree Days  
Heating Degree Days 0 1  
Month to date heating degree days 5  
Since 1 July heating degree days 6  
Cooling Degree Days 4 5  
Month to date cooling degree days 83  
Year to date cooling degree days 1093  
Growing Degree Days 19 (Base 50)    
Moisture  
Dew Point 56 °F    
Average Humidity 71    
Maximum Humidity 100    
Minimum Humidity 32    
Precipitation  
Precipitation 0.00 in 0.14 in 3.15 in (1944)
Month to date precipitation 1.61  
Year to date precipitation 29.46  
Snow  
Snow 0.00 in 0.00 in - ()
Month to date snowfall 0.0  
Since 1 July snowfall 0.0  
Snow Depth -    
Sea Level Pressure  
Sea Level Pressure 29.80 in    
Wind  
Wind Speed 3 mph (NW)    
Max Wind Speed 14 mph    
Max Gust Speed 23 mph    
Visibility 7 miles    
Events      
T = Trace of Precipitation, MM = Missing Value Source: NWS Daily Summary

Daily Weather History Graph

Daily Weather History Graph

Search for Another Location

Airport or City:

Trip Planner

Search our weather history database for the weather conditions in past years. The results will help you decide how hot, cold, wet, or windy it might be!

Date:

Astronomy

Sep. 13, 2013 Rise Set
Actual Time 6:46 AM EDT 7:18 PM EDT
Civil Twilight 6:19 AM EDT 7:45 PM EDT
Nautical Twilight 5:48 AM EDT 8:16 PM EDT
Astronomical Twilight 5:15 AM EDT 8:49 PM EDT
Moon 3:04 PM EDT (9/13) 12:16 AM EDT (9/13)
Length of Visible Light 13h 25m
Length of Day
12h 31m
First Quarter, 61% of the Moon is Illuminated
Sep 13
First Quarter
Sep 19
Full
Sep 26
Last Quarter
Oct 4
New
Oct 11
First Quarter

Hourly Weather History & Observations

Time (EDT) Temp. Dew Point Humidity Pressure Visibility Wind Dir Wind Speed Gust Speed Precip Events Conditions
12:06 AM 68.0 °F 66.2 °F 94% 29.77 in 1.0 mi Calm Calm - N/A   Overcast
12:27 AM 68.0 °F 66.2 °F 94% 29.76 in 1.5 mi Calm Calm - N/A   Overcast
12:45 AM 68.0 °F 66.2 °F 94% 29.76 in 1.5 mi Calm Calm - N/A   Overcast
1:06 AM 68.0 °F 66.2 °F 94% 29.75 in 1.8 mi Calm Calm - N/A   Overcast
1:27 AM 68.0 °F 66.2 °F 94% 29.75 in 1.8 mi Calm Calm - N/A   Overcast
1:45 AM 68.0 °F 66.2 °F 94% 29.75 in 1.8 mi Calm Calm - N/A   Overcast
2:06 AM 68.0 °F 66.2 °F 94% 29.74 in 1.5 mi Calm Calm - N/A   Overcast
2:27 AM 66.2 °F 64.4 °F 94% 29.74 in 1.8 mi Calm Calm - N/A   Mostly Cloudy
2:45 AM 64.4 °F 64.4 °F 100% 29.73 in 2.0 mi Calm Calm - N/A   Scattered Clouds
3:06 AM 64.4 °F 64.4 °F 100% 29.72 in 1.5 mi Calm Calm - N/A   Mostly Cloudy
3:27 AM 64.4 °F 62.6 °F 94% 29.73 in 1.8 mi Calm Calm - N/A   Scattered Clouds
3:45 AM 64.4 °F 62.6 °F 94% 29.73 in 1.8 mi Calm Calm - N/A   Scattered Clouds
4:06 AM 64.4 °F 62.6 °F 94% 29.73 in 1.8 mi Calm Calm - N/A   Unknown
4:27 AM 64.4 °F 62.6 °F 94% 29.74 in 1.5 mi Calm Calm - N/A   Unknown
4:45 AM 62.6 °F 62.6 °F 100% 29.73 in 2.5 mi Calm Calm - N/A   Scattered Clouds
5:06 AM 62.6 °F 62.6 °F 100% 29.73 in 2.0 mi Calm Calm - N/A   Scattered Clouds
5:27 AM 62.6 °F 62.6 °F 100% 29.74 in 1.5 mi Calm Calm - N/A   Scattered Clouds
5:45 AM 62.6 °F 62.6 °F 100% 29.74 in 1.5 mi Calm Calm - N/A   Unknown
6:06 AM 62.6 °F 60.8 °F 94% 29.75 in 1.8 mi Calm Calm - N/A   Unknown
6:27 AM 62.6 °F 60.8 °F 94% 29.75 in 2.0 mi Calm Calm - N/A   Clear
6:45 AM 62.6 °F 60.8 °F 94% 29.76 in 2.0 mi Calm Calm - N/A   Clear
7:06 AM 62.6 °F 60.8 °F 94% 29.76 in 1.5 mi Calm Calm - N/A   Unknown
7:27 AM 62.6 °F 60.8 °F 94% 29.77 in 1.2 mi Calm Calm - N/A   Overcast
7:48 AM 62.6 °F 62.6 °F 100% 29.77 in 1.5 mi NNW 3.5 mph - N/A   Overcast
8:06 AM 62.6 °F 60.8 °F 94% 29.77 in 5.0 mi WNW 3.5 mph - N/A   Overcast
8:27 AM 62.6 °F 62.6 °F 100% 29.78 in 2.0 mi Calm Calm - N/A   Overcast
8:48 AM 64.4 °F 62.6 °F 94% 29.80 in 1.8 mi West 3.5 mph - N/A   Overcast
9:06 AM 64.4 °F 62.6 °F 94% 29.80 in 5.0 mi WNW 4.6 mph - N/A   Overcast
9:24 AM 62.6 °F 62.6 °F 100% 29.80 in 5.0 mi WNW 4.6 mph - N/A   Mostly Cloudy
9:48 AM 64.4 °F 60.8 °F 88% 29.81 in 10.0 mi NW 3.5 mph - N/A   Mostly Cloudy
10:06 AM 64.4 °F 60.8 °F 88% 29.81 in 7.0 mi WNW 5.8 mph - N/A   Mostly Cloudy
10:27 AM 64.4 °F 60.8 °F 88% 29.81 in 10.0 mi WNW 3.5 mph - N/A   Overcast
10:48 AM 68.0 °F 60.8 °F 78% 29.81 in 10.0 mi NW 6.9 mph - N/A   Scattered Clouds
11:06 AM 71.6 °F 59.0 °F 64% 29.81 in 10.0 mi NNW 9.2 mph 17.3 mph N/A   Scattered Clouds
11:27 AM 71.6 °F 57.2 °F 60% 29.81 in 10.0 mi NW 10.4 mph 17.3 mph N/A   Scattered Clouds
11:48 AM 73.4 °F 57.2 °F 57% 29.81 in 10.0 mi NW 8.1 mph 17.3 mph N/A   Scattered Clouds
12:06 PM 75.2 °F 55.4 °F 50% 29.81 in 10.0 mi NW 12.7 mph 18.4 mph N/A   Clear
12:27 PM 75.2 °F 53.6 °F 47% 29.81 in 10.0 mi NW 12.7 mph 21.9 mph N/A   Scattered Clouds
12:48 PM 75.2 °F 51.8 °F 44% 29.80 in 10.0 mi WNW 10.4 mph 18.4 mph N/A   Scattered Clouds
1:06 PM 75.2 °F 51.8 °F 44% 29.81 in 10.0 mi NW 11.5 mph 19.6 mph N/A   Scattered Clouds
1:27 PM 73.4 °F 51.8 °F 47% 29.81 in 10.0 mi WNW 10.4 mph 20.7 mph N/A   Scattered Clouds
1:48 PM 73.4 °F 50.0 °F 44% 29.79 in 10.0 mi NW 13.8 mph 20.7 mph N/A   Scattered Clouds
2:06 PM 75.2 °F 50.0 °F 41% 29.79 in 10.0 mi West 10.4 mph 16.1 mph N/A   Scattered Clouds
2:27 PM 77.0 °F 50.0 °F 39% 29.78 in 10.0 mi West 13.8 mph 18.4 mph N/A   Scattered Clouds
2:48 PM 73.4 °F 50.0 °F 44% 29.79 in 10.0 mi WNW 12.7 mph 16.1 mph N/A   Mostly Cloudy
3:06 PM 77.0 °F 48.2 °F 36% 29.79 in 10.0 mi NW 10.4 mph 18.4 mph N/A   Scattered Clouds
3:27 PM 78.8 °F 46.4 °F 32% 29.79 in 10.0 mi NW 11.5 mph 17.3 mph N/A   Mostly Cloudy
3:48 PM 77.0 °F 46.4 °F 34% 29.79 in 10.0 mi NW 10.4 mph 17.3 mph N/A   Mostly Cloudy
4:09 PM 77.0 °F 48.2 °F 36% 29.79 in 10.0 mi North 9.2 mph - N/A   Scattered Clouds
4:27 PM 73.4 °F 46.4 °F 38% 29.79 in 10.0 mi NW 9.2 mph 17.3 mph N/A   Clear
4:48 PM 75.2 °F 44.6 °F 34% 29.79 in 10.0 mi NW 9.2 mph 18.4 mph N/A   Clear
5:09 PM 73.4 °F 44.6 °F 36% 29.78 in 10.0 mi West 11.5 mph 16.1 mph N/A   Clear
5:27 PM 75.2 °F 44.6 °F 34% 29.79 in 10.0 mi WNW 11.5 mph 16.1 mph N/A   Mostly Cloudy
5:48 PM 73.4 °F 44.6 °F 36% 29.80 in 10.0 mi WNW 11.5 mph 17.3 mph N/A   Overcast
6:09 PM 73.4 °F 48.2 °F 41% 29.81 in 10.0 mi NW 8.1 mph 23.0 mph N/A   Overcast
6:27 PM 69.8 °F 46.4 °F 43% 29.82 in 10.0 mi NW 10.4 mph 16.1 mph N/A   Mostly Cloudy
6:48 PM 69.8 °F 46.4 °F 43% 29.83 in 10.0 mi NW 10.4 mph 18.4 mph N/A   Overcast
7:09 PM 69.8 °F 48.2 °F 46% 29.85 in 10.0 mi WNW 6.9 mph - N/A   Overcast
7:27 PM 68.0 °F 50.0 °F 52% 29.85 in 10.0 mi NW 9.2 mph 17.3 mph N/A   Overcast
7:48 PM 66.2 °F 50.0 °F 56% 29.87 in 10.0 mi NW 8.1 mph - N/A   Mostly Cloudy
8:09 PM 64.4 °F 50.0 °F 59% 29.88 in 10.0 mi NW 6.9 mph - N/A   Mostly Cloudy
8:27 PM 64.4 °F 51.8 °F 64% 29.90 in 10.0 mi NW 5.8 mph - N/A   Scattered Clouds
8:48 PM 62.6 °F 50.0 °F 63% 29.90 in 10.0 mi WNW 5.8 mph - N/A   Scattered Clouds
9:09 PM 62.6 °F 51.8 °F 68% 29.91 in 10.0 mi WNW 5.8 mph - N/A   Scattered Clouds
9:27 PM 62.6 °F 51.8 °F 68% 29.92 in 10.0 mi NW 4.6 mph - N/A   Mostly Cloudy
9:48 PM 62.6 °F 51.8 °F 68% 29.93 in 10.0 mi WNW 4.6 mph - N/A   Mostly Cloudy
10:09 PM 62.6 °F 51.8 °F 68% 29.93 in 10.0 mi WNW 6.9 mph - N/A   Mostly Cloudy
10:27 PM 60.8 °F 51.8 °F 72% 29.94 in 10.0 mi NW 6.9 mph - N/A   Mostly Cloudy
10:48 PM 60.8 °F 50.0 °F 68% 29.94 in 10.0 mi WNW 4.6 mph - N/A   Mostly Cloudy
11:09 PM 60.8 °F 50.0 °F 68% 29.94 in 10.0 mi WNW 6.9 mph - N/A   Mostly Cloudy
11:27 PM 60.8 °F 50.0 °F 68% 29.95 in 10.0 mi NW 9.2 mph - N/A   Mostly Cloudy
11:48 PM 60.8 °F 50.0 °F 68% 29.95 in 10.0 mi WNW 8.1 mph - N/A   Overcast